User: anonymous   Login
Location: Petruro
(41.0333°N, 14.7833°E)
Time: 14:38:13
(UTC+00:00)
Language:

MSX - Orbit

View from above orbital plane
View from above orbital plane
View from above satellite
View from above satellite

Ground track
Ground track

The orbit data is extracted from the following two-line orbital elements,

1 23851U 96024A   21262.88793427 -.00000004  00000-0  26616-4 0  9991
2 23851  98.8427 216.1069 0007460 342.2368  17.8534 13.98108229296377
Epoch (UTC): 19 September 2021 21:18:37
Eccentricity: 0.0007460
inclination: 98.8427°
perigee height: 895 km
apogee height: 906 km
right ascension of ascending node: 216.1069°
argument of perigee: 342.2368°
revolutions per day: 13.98108229
mean anomaly at epoch: 17.8534°
orbit number at epoch: 29637

The dashed part of the orbit path shows where the satellite is in the earth's shadow,  

DLR